Wind_Speed
46 48 49 50 51 52 54 55 56 58 59 61 64 66 68 69 70 71 71 71 72 73 73 73 72 70 69 67 65 63 61 60 58 57 56 55 55 54
50 51 53 53 53 55 56 57 58 59 61 63 65 66 66 67 68 69 69 70 70 69 68 66 63 61 59 58 57 55 54 53 51 50 50 49 49 49
54 54 55 55 56 56 58 59 60 61 62 63 65 65 66 66 67 67 67 66 63 61 59 57 56 54 53 51 50 49 48 47 47 46 46 46 46 46
55 55 55 55 56 57 58 59 61 62 62 62 62 63 63 63 63 61 59 57 55 53 52 51 49 47 45 44 44 43 43 43 44 44 43 43 43 42
55 55 55 55 56 57 58 60 61 61 61 60 59 59 58 57 54 53 51 50 49 48 46 45 43 42 42 40 40 39 40 40 40 40 40 40 39 39
54 54 55 55 56 58 59 59 59 58 58 56 54 53 51 50 48 47 45 45 44 43 42 42 41 39 39 38 37 37 36 37 37 37 37 37 36 36
54 54 55 55 56 57 57 56 55 54 52 50 49 46 45 44 43 42 41 40 40 40 39 38 37 36 36 36 35 35 34 34 34 34 33 33 33 33
52 53 53 54 54 55 54 52 50 48 47 45 42 40 38 37 36 37 36 35 34 34 34 34 33 34 34 34 33 33 32 31 30 30 30 30 30 30
51 51 51 51 50 50 48 47 46 44 41 37 34 33 32 31 32 31 31 31 32 31 29 29 30 30 30 29 28 28 28 27 27 26 25 25 26 27
48 48 48 47 46 45 43 42 40 38 34 31 29 28 28 28 29 29 29 29 29 28 26 25 25 25 25 24 23 23 23 22 22 22 22 23 24 25
46 45 43 43 42 40 38 36 34 30 27 25 24 24 25 26 26 26 26 26 26 26 25 23 23 23 23 21 20 20 19 19 19 19 19 21 22 23
43 41 39 38 36 34 30 28 25 22 21 21 21 22 23 24 24 24 24 24 24 23 23 23 22 21 22 22 20 18 17 16 16 17 18 19 20 21
39 36 34 32 29 26 22 19 17 16 16 17 18 19 20 21 21 22 23 23 23 23 22 22 22 22 22 22 21 19 17 16 16 16 17 18 19 20
33 30 27 24 21 18 14 12 11 12 13 14 16 17 18 19 20 21 22 22 22 22 22 23 23 23 23 23 22 21 19 18 16 15 14 15 15 16
24 21 18 15 12 9 7 7 8 9 11 12 14 15 17 19 19 20 21 21 21 21 22 24 24 25 26 25 24 23 21 19 17 14 11 10 10 10
14 12 10 8 5 3 3 4 6 8 10 12 13 15 17 19 20 21 21 21 22 22 23 23 25 26 28 28 26 25 23 21 17 12 8 7 5 5
6 6 5 4 3 3 3 5 7 9 10 12 14 16 18 20 21 21 21 21 22 22 22 23 25 27 29 28 27 26 25 22 18 13 10 7 3 1
7 8 8 8 7 7 7 7 8 9 11 13 15 17 19 21 22 22 22 22 21 21 22 23 24 26 28 28 28 28 26 23 19 16 14 11 8 7
11 11 11 10 10 9 9 9 10 11 13 15 17 19 21 23 23 24 23 23 22 21 21 21 22 24 25 27 28 29 28 25 22 19 17 16 14 13
14 13 12 12 10 10 9 10 11 12 14 17 19 21 22 23 24 24 24 24 22 21 21 20 21 22 25 27 28 28 29 27 24 22 21 19 18 17
15 14 13 12 11 10 10 11 12 14 16 18 20 22 23 24 24 24 24 25 24 22 21 21 21 22 24 26 27 27 28 28 27 25 23 21 20 20
15 14 13 12 11 10 11 12 13 15 17 19 20 21 22 23 24 24 25 25 24 23 22 22 21 21 22 24 26 28 29 29 28 26 24 23 22 22
15 13 12 11 11 11 11 13 14 16 17 18 19 20 22 23 24 25 25 25 25 24 23 22 22 22 22 23 25 26 27 28 29 28 26 25 24 23
Wind_Direction
293 293 293 292 292 291 291 291 290 290 290 290 290 290 290 289 289 289 289 289 289 289 289 288 287 286 285 284 283 281 279 278 276 274 273 270 268 265
293 293 293 292 292 292 293 293 293 293 293 293 292 292 292 291 291 292 292 291 291 291 290 289 288 287 286 285 283 281 279 277 275 273 271 269 267 264
293 293 293 294 294 294 294 294 295 295 295 295 295 294 294 294 294 294 294 294 293 293 291 290 290 289 287 286 284 281 279 276 274 272 270 267 265 263
293 294 294 294 295 295 295 296 296 297 297 297 296 296 296 296 297 296 296 296 295 294 293 292 291 289 288 286 284 281 279 276 274 272 269 266 264 261
293 294 295 295 296 296 296 297 298 298 298 299 299 299 299 299 299 299 299 297 296 295 294 293 292 290 288 286 284 282 280 278 276 273 268 264 262 260
293 294 295 295 296 297 298 298 299 299 300 301 301 301 301 302 302 302 301 300 299 298 297 295 293 291 289 287 286 284 282 279 277 274 269 264 260 259
292 293 294 296 297 297 298 299 300 301 302 303 303 304 305 305 306 306 306 305 303 301 299 297 295 294 292 291 289 287 285 281 278 273 268 263 258 257
292 293 294 295 296 297 298 300 301 301 303 304 305 307 308 310 312 313 313 312 310 307 304 301 299 297 295 293 291 290 288 283 279 274 267 261 256 255
291 292 294 295 296 297 299 300 301 303 305 307 308 312 315 317 320 322 321 320 319 318 313 308 305 304 301 299 296 294 290 284 279 273 266 260 255 254
290 291 293 295 297 297 299 300 303 306 308 310 315 320 323 326 329 330 331 330 329 329 327 321 317 315 313 311 305 300 294 287 281 273 265 260 256 255
289 291 292 294 295 296 297 300 303 306 309 315 321 326 330 333 336 338 339 340 340 339 339 336 332 328 326 324 318 311 303 293 284 276 268 262 259 258
288 289 290 291 293 294 296 300 303 307 315 323 329 334 337 340 341 343 345 347 347 347 346 345 344 342 338 335 333 326 316 304 293 282 274 268 263 260
286 286 287 288 289 292 296 300 305 314 322 329 333 338 342 344 346 348 350 352 353 355 356 355 354 352 350 346 343 339 329 318 306 293 282 275 269 264
282 282 282 282 284 289 295 302 313 323 331 335 339 344 347 349 351 352 353 355 356 359 0 1 2 1 358 354 350 346 340 331 321 308 294 283 273 266
277 276 273 272 277 284 297 314 328 338 343 345 348 351 352 353 354 355 356 357 358 360 2 5 6 6 4 2 359 355 350 345 338 326 311 295 277 265
266 259 253 253 254 276 324 349 357 358 357 357 358 357 357 357 357 356 357 358 359 2 4 6 8 8 7 6 4 1 359 357 353 348 341 324 299 271
223 203 192 173 141 100 62 40 25 15 11 8 6 3 2 360 358 357 357 358 359 1 3 6 9 10 10 11 11 10 9 9 11 17 17 15 18 19
146 142 134 123 109 92 73 54 37 25 18 13 9 6 4 2 1 359 359 360 360 1 3 6 9 11 13 16 19 19 19 23 29 34 36 46 62 80
124 121 116 110 101 89 72 55 40 28 19 14 10 8 7 5 4 3 2 2 2 3 5 8 12 15 18 21 24 26 28 32 38 43 50 60 74 83
116 113 110 105 96 82 65 49 36 25 18 13 10 8 8 7 6 6 7 7 7 8 10 13 17 20 24 27 29 31 34 38 44 50 58 67 75 80
114 112 107 99 86 71 55 42 30 22 16 12 11 12 12 12 12 12 13 14 15 16 18 20 23 26 29 31 33 37 40 43 49 54 61 69 73 79
111 107 99 88 75 61 47 35 26 20 17 16 18 20 21 20 20 21 21 21 22 23 24 27 30 34 36 38 40 42 45 48 51 55 61 68 75 80
104 98 90 79 67 53 41 31 26 22 22 26 30 31 31 30 29 28 27 27 27 28 30 32 35 38 41 43 45 47 50 52 55 58 63 69 75 81
Height
5782 5778 5774 5770 5766 5761 5756 5752 5748 5742 5736 5727 5718 5709 5701 5694 5687 5680 5673 5667 5660 5653 5646 5640 5634 5628 5624 5620 5616 5612 5609 5607 5605 5604 5603 5603 5604 5605
5769 5765 5761 5756 5751 5746 5741 5736 5731 5726 5720 5712 5703 5694 5685 5677 5669 5662 5655 5648 5640 5633 5627 5620 5615 5609 5605 5600 5597 5594 5592 5589 5588 5587 5586 5586 5587 5588
5756 5752 5747 5742 5737 5732 5726 5720 5714 5708 5703 5696 5686 5677 5669 5661 5653 5644 5636 5629 5622 5615 5609 5603 5598 5593 5588 5584 5581 5578 5575 5574 5572 5572 5571 5571 5572 5573
5742 5738 5733 5728 5723 5718 5712 5705 5699 5692 5686 5680 5670 5661 5653 5644 5637 5629 5620 5613 5606 5600 5594 5588 5583 5578 5574 5570 5567 5564 5562 5560 5558 5557 5557 5557 5558 5559
5728 5724 5720 5715 5709 5703 5697 5691 5684 5677 5670 5664 5656 5647 5639 5630 5623 5615 5607 5600 5593 5587 5581 5575 5571 5566 5562 5558 5555 5552 5549 5547 5545 5544 5543 5544 5545 5546
5715 5710 5706 5701 5695 5689 5683 5676 5670 5663 5656 5649 5642 5634 5626 5618 5611 5604 5597 5589 5581 5574 5569 5564 5559 5554 5550 5546 5543 5540 5537 5535 5533 5531 5531 5531 5533 5534
5701 5696 5692 5687 5681 5675 5669 5663 5657 5651 5644 5637 5630 5623 5616 5608 5601 5593 5586 5579 5572 5564 5559 5553 5548 5544 5539 5535 5532 5529 5526 5523 5521 5520 5519 5520 5522 5524
5687 5683 5678 5674 5668 5662 5656 5651 5645 5640 5634 5627 5621 5614 5607 5600 5593 5585 5578 5571 5565 5558 5551 5545 5539 5534 5529 5526 5522 5518 5515 5513 5511 5509 5509 5510 5512 5514
5674 5670 5666 5661 5656 5650 5645 5639 5634 5629 5624 5619 5613 5607 5601 5594 5587 5580 5571 5564 5557 5550 5543 5537 5532 5526 5521 5517 5513 5510 5506 5504 5502 5501 5500 5501 5503 5505
5661 5657 5653 5649 5645 5640 5635 5630 5625 5620 5616 5611 5606 5600 5594 5588 5581 5574 5567 5560 5552 5544 5538 5532 5526 5521 5515 5511 5506 5503 5499 5497 5495 5493 5493 5494 5495 5496
5648 5645 5642 5638 5634 5630 5626 5622 5618 5614 5610 5605 5601 5596 5590 5584 5577 5571 5564 5557 5550 5542 5536 5529 5523 5517 5512 5507 5502 5498 5494 5491 5489 5487 5487 5487 5487 5488
5636 5634 5631 5628 5626 5622 5619 5615 5612 5609 5605 5601 5597 5592 5587 5581 5575 5569 5562 5555 5549 5542 5535 5529 5522 5516 5510 5504 5499 5494 5490 5486 5484 5482 5481 5480 5480 5481
5625 5623 5621 5619 5618 5616 5613 5611 5608 5605 5602 5599 5595 5590 5585 5579 5573 5567 5561 5555 5548 5541 5535 5528 5522 5515 5509 5503 5497 5491 5486 5482 5479 5476 5475 5474 5473 5473
5614 5614 5613 5612 5612 5610 5609 5607 5605 5603 5600 5597 5593 5588 5583 5578 5573 5567 5561 5554 5548 5542 5535 5528 5522 5515 5508 5502 5495 5489 5484 5479 5474 5471 5469 5467 5466 5466
5606 5606 5607 5607 5607 5607 5606 5605 5603 5601 5599 5596 5592 5587 5583 5577 5572 5566 5560 5554 5548 5542 5536 5529 5522 5516 5508 5501 5494 5488 5482 5476 5471 5467 5464 5462 5461 5461
5600 5601 5603 5604 5604 5605 5605 5604 5602 5600 5598 5595 5591 5587 5582 5577 5571 5566 5560 5555 5549 5543 5537 5530 5524 5516 5509 5501 5494 5487 5480 5474 5468 5464 5461 5459 5458 5458
5597 5599 5601 5603 5604 5604 5604 5603 5602 5600 5597 5594 5590 5586 5582 5577 5571 5566 5561 5555 5549 5544 5538 5532 5525 5518 5511 5503 5496 5488 5481 5474 5468 5464 5461 5459 5458 5457
5597 5599 5601 5602 5604 5604 5604 5603 5602 5600 5598 5594 5590 5586 5581 5576 5571 5566 5561 5555 5550 5544 5539 5533 5526 5520 5514 5506 5499 5491 5483 5477 5471 5467 5464 5461 5460 5459
5599 5600 5602 5604 5605 5605 5605 5604 5603 5601 5598 5595 5591 5586 5582 5577 5572 5566 5561 5555 5550 5545 5539 5534 5529 5523 5517 5510 5502 5495 5488 5481 5476 5472 5468 5465 5464 5463
5601 5603 5605 5606 5607 5607 5607 5606 5604 5602 5599 5595 5591 5587 5582 5577 5572 5567 5561 5556 5550 5545 5540 5536 5531 5525 5519 5513 5507 5500 5493 5487 5482 5478 5475 5472 5470 5469
5605 5607 5608 5609 5610 5610 5609 5608 5606 5603 5600 5597 5593 5588 5583 5578 5573 5568 5562 5557 5552 5547 5542 5537 5533 5528 5522 5518 5512 5506 5500 5495 5490 5485 5482 5480 5478 5477
5609 5611 5612 5613 5613 5612 5611 5609 5607 5605 5602 5598 5594 5590 5585 5581 5575 5570 5565 5559 5554 5549 5545 5540 5536 5532 5528 5523 5518 5513 5507 5502 5498 5494 5491 5489 5487 5486
5614 5615 5616 5616 5615 5615 5613 5611 5609 5606 5603 5600 5596 5593 5588 5584 5579 5574 5568 5563 5558 5553 5549 5544 5540 5536 5532 5528 5524 5519 5515 5511 5507 5503 5500 5497 5495 5495